| time (UTC) | temp F | wind direction | speed MPH | gust MPH | rain 1hr in | rain 24hr in | rain mn in | humidity % | barometer mb |
| 20260507175630 | 68 | 270 | 2.0 | 4.0 | 0.00 | 0.00 | 0.00 | 46 | 1009.5 |
| 20260507174730 | 72 | 292 | 4.0 | 4.0 | 0.00 | 0.00 | 0.00 | 37 | 1009.4 |
| 20260507172930 | 72 | 292 | 4.0 | 4.0 | 0.00 | 0.00 | 0.00 | 37 | 1009.5 |
| 20260507172030 | 72 | 292 | 4.0 | 4.0 | 0.00 | 0.00 | 0.00 | 37 | 1009.3 |
| 20260507171130 | 72 | 292 | 4.0 | 4.0 | 0.00 | 0.00 | 0.00 | 37 | 1009.4 |
| 20260507170230 | 72 | 292 | 4.0 | 4.0 | 0.00 | 0.00 | 0.00 | 37 | 1009.3 |
| 20260507165333 | 72 | 292 | 4.0 | 4.0 | 0.00 | 0.00 | 0.00 | 37 | 1009.3 |
| 20260507164430 | 72 | 292 | 4.0 | 4.0 | 0.00 | 0.00 | 0.00 | 37 | 1009.3 |
| 20260507163530 | 72 | 292 | 4.0 | 4.0 | 0.00 | 0.00 | 0.00 | 37 | 1009.4 |
| 20260507162630 | 72 | 292 | 4.0 | 4.0 | 0.00 | 0.00 | 0.00 | 37 | 1009.4 |
| 20260507161730 | 72 | 292 | 4.0 | 4.0 | 0.00 | 0.00 | 0.00 | 37 | 1009.3 |
| 20260507160830 | 72 | 292 | 4.0 | 4.0 | 0.00 | 0.00 | 0.00 | 37 | 1009.5 |
| 20260507155930 | 72 | 292 | 4.0 | 4.0 | 0.00 | 0.00 | 0.00 | 37 | 1009.1 |
| 20260507155030 | 72 | 292 | 4.0 | 4.0 | 0.00 | 0.00 | 0.00 | 37 | 1009.2 |
| 20260507153230 | 72 | 292 | 4.0 | 4.0 | 0.00 | 0.00 | 0.00 | 37 | 1009.2 |
| 20260507152330 | 72 | 292 | 4.0 | 4.0 | 0.00 | 0.00 | 0.00 | 37 | 1009.4 |
| 20260507150530 | 72 | 308 | 4.0 | 5.0 | 0.00 | 0.00 | 0.00 | 37 | 1009.5 |
| 20260507145630 | 72 | 294 | 3.0 | 5.0 | 0.00 | 0.00 | 0.00 | 38 | 1009.3 |
| 20260507144730 | 72 | 292 | 4.0 | 5.0 | 0.00 | 0.00 | 0.00 | 39 | 1009.4 |
| 20260507143830 | 75 | 292 | 8.0 | 9.0 | 0.00 | 0.00 | 0.00 | 37 | 1009.7 |
| 20260507142033 | 75 | 292 | 8.0 | 9.0 | 0.00 | 0.00 | 0.00 | 37 | 1009.5 |
| 20260507141130 | 75 | 292 | 8.0 | 9.0 | 0.00 | 0.00 | 0.00 | 37 | 1009.6 |
| 20260507140230 | 75 | 292 | 8.0 | 9.0 | 0.00 | 0.00 | 0.00 | 37 | 1009.8 |
| 20260507135330 | 75 | 286 | 7.0 | 9.0 | 0.00 | 0.00 | 0.00 | 37 | 1009.7 |
| 20260507134430 | 76 | 270 | 4.0 | 7.0 | 0.00 | 0.00 | 0.00 | 34 | 1010.2 |
| 20260507133530 | 75 | 175 | 3.0 | 7.0 | 0.00 | 0.00 | 0.00 | 35 | 1010.2 |
| 20260507132630 | 74 | 130 | 3.0 | 5.0 | 0.00 | 0.00 | 0.00 | 34 | 1010.1 |
| 20260507131730 | 72 | 161 | 3.0 | 6.0 | 0.00 | 0.00 | 0.00 | 35 | 1010.3 |
| 20260507125930 | 73 | 82 | 3.0 | 7.0 | 0.00 | 0.00 | 0.00 | 35 | 1010.5 |
| 20260507125031 | 74 | 355 | 2.0 | 5.0 | 0.00 | 0.00 | 0.00 | 38 | 1010.3 |
| 20260507120324 | 68 | 292 | 8.0 | 10.0 | 0.00 | 0.00 | 0.00 | 48 | 1010.3 |
| 20260507115423 | 68 | 292 | 8.0 | 10.0 | 0.00 | 0.00 | 0.00 | 48 | 1010.7 |
| 20260507114524 | 68 | 310 | 6.0 | 10.0 | 0.00 | 0.00 | 0.00 | 48 | 1010.5 |
| 20260507113623 | 69 | 4 | 4.0 | 10.0 | 0.00 | 0.00 | 0.00 | 45 | 1010.8 |
| 20260507112725 | 70 | 315 | 4.0 | 10.0 | 0.00 | 0.00 | 0.00 | 44 | 1010.7 |
| 20260507105124 | 67 | 317 | 5.0 | 11.0 | 0.00 | 0.00 | 0.00 | 52 | 1011.2 |
| 20260507104223 | 67 | 284 | 4.0 | 8.0 | 0.00 | 0.00 | 0.00 | 51 | 1011.3 |
| 20260507103323 | 66 | 317 | 4.0 | 8.0 | 0.00 | 0.00 | 0.00 | 54 | 1011.3 |
| 20260507102423 | 67 | 350 | 5.0 | 9.0 | 0.00 | 0.00 | 0.00 | 51 | 1011.4 |
| 20260507101524 | 71 | 297 | 3.0 | 9.0 | 0.00 | 0.00 | 0.00 | 43 | 1011.4 |